TimeCST,TemperatureF,Dew PointF,Humidity,Sea Level PressureIn,VisibilityMPH,Wind Direction,Wind SpeedMPH,Gust SpeedMPH,PrecipitationIn,Events,Conditions,WindDirDegrees,DateUTC
12:53 AM,-6.0,-11.9,75,30.75,10.0,NNW,6.9,-,N/A,,Scattered Clouds,330,2014-02-06 06:53:00
1:53 AM,-2.9,-9.9,72,30.73,10.0,Calm,Calm,-,N/A,,Overcast,0,2014-02-06 07:53:00
2:53 AM,-0.9,-8.0,72,30.72,10.0,Calm,Calm,-,N/A,,Overcast,0,2014-02-06 08:53:00
3:53 AM,-0.9,-7.1,75,30.71,10.0,Calm,Calm,-,N/A,,Overcast,0,2014-02-06 09:53:00
4:53 AM,1.0,-8.0,66,30.70,10.0,Calm,Calm,-,N/A,,Overcast,0,2014-02-06 10:53:00
5:53 AM,-0.0,-6.0,76,30.71,10.0,Calm,Calm,-,N/A,,Overcast,0,2014-02-06 11:53:00
6:53 AM,1.0,-6.0,72,30.70,10.0,Calm,Calm,-,N/A,,Overcast,0,2014-02-06 12:53:00
7:53 AM,1.0,-7.1,69,30.71,10.0,Calm,Calm,-,N/A,,Overcast,0,2014-02-06 13:53:00
8:53 AM,1.0,-7.1,69,30.70,10.0,Calm,Calm,-,N/A,,Overcast,0,2014-02-06 14:53:00
9:53 AM,1.9,-6.0,69,30.70,10.0,SSE,3.5,-,N/A,,Overcast,160,2014-02-06 15:53:00
10:53 AM,3.9,-5.1,66,30.68,10.0,South,3.5,-,N/A,,Overcast,180,2014-02-06 16:53:00
11:53 AM,5.0,-4.0,66,30.67,10.0,South,5.8,-,N/A,,Overcast,170,2014-02-06 17:53:00
12:53 PM,6.1,-4.0,63,30.63,10.0,South,3.5,-,N/A,,Overcast,190,2014-02-06 18:53:00
1:53 PM,7.0,-2.0,67,30.58,10.0,South,5.8,-,N/A,,Overcast,180,2014-02-06 19:53:00
2:53 PM,7.0,-2.0,67,30.55,10.0,South,5.8,-,N/A,,Overcast,180,2014-02-06 20:53:00
3:53 PM,7.0,-2.9,64,30.53,10.0,South,5.8,-,N/A,,Overcast,180,2014-02-06 21:53:00
4:53 PM,7.0,-2.9,64,30.51,10.0,South,5.8,-,N/A,,Overcast,170,2014-02-06 22:53:00
5:53 PM,7.0,-2.9,64,30.50,10.0,SSE,6.9,-,N/A,,Overcast,160,2014-02-06 23:53:00
6:53 PM,6.1,-2.0,69,30.51,10.0,South,5.8,-,N/A,,Overcast,170,2014-02-07 00:53:00
7:53 PM,6.1,-2.0,69,30.50,10.0,South,6.9,-,N/A,,Overcast,170,2014-02-07 01:53:00
8:53 PM,6.1,-2.0,69,30.49,10.0,South,8.1,-,N/A,,Overcast,180,2014-02-07 02:53:00
9:53 PM,6.1,-0.9,73,30.48,10.0,SSE,5.8,-,N/A,,Overcast,160,2014-02-07 03:53:00
10:53 PM,6.1,-0.9,73,30.45,10.0,South,4.6,-,N/A,,Overcast,170,2014-02-07 04:53:00
11:53 PM,5.0,-2.0,73,30.43,10.0,South,6.9,-,N/A,,Overcast,180,2014-02-07 05:53:00